Location: Archemont
(49.1579°N, 1.7598°E)
Time: 07:27:30
(UTC+00:00)

BlueWalker 3 - Pass Details

Date: 05 March 2024
Orbit: 485 x 495 km, 53.2° (Epoch: 24 April)

Event Time Altitude Azimuth Distance (km) Brightness Sun altitude
Rises 19:30:13 0° 287° (WNW) 2,560 7.2 -18.2°
Reaches altitude 10° 19:33:04 10° 265° (W) 1,672 5.7 -18.7°
Maximum altitude 19:35:20 15° 227° (SW) 1,362 4.5 -19.0°
Drops below altitude 10° 19:37:37 10° 190° (S) 1,662 4.5 -19.4°
Enters shadow 19:38:09 - 184° (S) 1,803 4.6 -19.5°
